Wind_Speed
14 13 12 11 11 12 13 14 15 17 18 18 18 16 15 14 12 10 7 4 3 4 5 6 8 9 11 13 14 15 18 18 22 33 33 34 32 32 32 30 28 31 35
17 16 14 14 14 14 15 15 16 17 17 16 14 13 12 9 5 2 3 4 6 7 9 11 13 15 17 19 21 22 23 24 28 37 39 42 42 41 41 41 38 34 32
20 18 18 17 16 15 15 15 15 14 13 12 10 9 7 4 2 3 5 7 8 10 11 14 16 19 21 23 24 25 27 29 30 34 40 40 42 43 45 45 47 46 45
22 21 19 17 16 14 14 14 13 13 11 10 8 7 6 4 3 4 6 8 10 12 13 15 18 21 23 25 27 28 29 31 33 35 38 41 42 43 41 46 51 49 54
25 22 20 18 15 14 12 12 11 10 9 8 7 6 6 5 5 7 9 10 11 12 14 15 18 20 22 24 26 28 29 31 33 34 37 38 41 43 43 45 48 52 52
26 24 20 17 15 14 12 11 10 10 9 8 6 6 7 7 8 9 11 13 14 15 16 17 19 20 22 24 24 25 26 29 30 32 32 34 38 38 41 43 45 48 53
28 25 22 19 16 14 12 11 10 10 9 8 8 7 8 9 10 12 12 14 15 16 17 19 20 20 22 24 25 25 25 24 26 29 31 34 37 37 40 43 43 43 46
29 26 23 20 18 16 14 12 11 11 9 8 8 7 7 9 11 15 14 15 16 16 17 18 20 21 22 25 27 28 27 26 26 29 30 34 35 36 36 38 40 45 47
29 26 23 21 19 17 15 13 12 10 9 8 7 7 7 9 11 14 17 17 18 17 16 16 17 20 22 25 27 29 30 29 29 30 31 33 33 34 34 38 40 43 53
29 26 24 22 20 17 15 13 12 10 9 8 7 8 10 9 11 14 18 19 20 21 20 19 18 20 22 23 26 29 32 33 36 37 36 36 35 35 34 33 35 38 41
28 25 23 20 18 16 14 12 11 9 8 7 7 8 10 11 12 14 17 18 20 22 22 22 23 22 23 24 25 27 29 34 36 37 38 37 37 36 35 34 32 32 36
27 26 23 20 18 15 13 11 9 8 8 8 8 9 11 12 14 14 16 17 17 21 22 24 23 23 25 26 26 27 30 32 33 34 35 36 37 37 37 37 35 33 32
23 22 22 20 16 13 13 11 10 8 8 10 10 11 12 13 13 15 16 18 19 19 24 20 25 25 26 27 26 27 28 29 31 33 34 35 36 38 39 39 38 38 40
21 19 18 17 14 14 12 10 9 9 10 11 12 13 13 13 14 15 18 19 19 21 24 26 24 25 25 26 26 26 25 26 28 31 33 35 37 38 39 39 41 42 44
19 18 16 14 14 13 11 10 10 11 12 13 13 14 15 15 15 15 15 18 17 18 24 23 25 26 27 27 26 27 26 27 29 31 32 35 37 39 40 40 39 41 44
16 15 16 16 13 11 12 11 11 11 11 12 12 14 16 17 17 15 15 14 15 19 23 25 26 26 26 27 28 29 28 27 28 30 32 33 36 39 41 40 38 39 44
18 19 16 14 15 13 11 11 11 12 11 12 13 15 17 18 17 15 15 13 18 20 22 23 24 25 26 27 28 29 31 29 29 30 31 33 35 37 39 39 38 39 44
17 17 15 14 13 13 12 12 12 13 13 12 14 16 17 16 15 16 15 18 17 18 21 23 24 25 26 27 28 29 30 30 30 31 31 32 33 35 37 37 37 39 42
14 13 14 14 13 12 13 14 15 15 15 14 14 14 17 16 15 15 16 20 21 20 22 23 25 26 27 28 28 29 30 30 30 31 31 32 32 34 34 34 36 37 40
15 13 13 12 13 14 15 16 17 17 16 16 14 14 15 18 16 15 17 19 21 23 24 26 26 26 28 28 28 29 30 31 31 30 31 31 32 32 32 33 35 38 40
13 12 13 14 15 16 17 16 17 18 18 18 16 16 18 20 19 19 19 20 22 24 25 27 27 28 28 29 29 30 31 31 31 31 31 30 31 32 29 30 33 35 39
14 14 14 15 16 17 17 18 19 20 20 20 18 16 18 20 20 22 23 23 23 24 25 28 29 29 29 29 30 31 32 32 30 30 31 30 31 31 30 30 31 34 37
14 14 15 16 17 18 19 19 20 20 20 20 21 21 20 21 22 24 25 25 25 26 26 27 29 29 29 29 29 30 32 32 31 30 31 30 30 30 30 31 31 33 35
15 16 17 17 19 20 20 20 21 21 21 21 22 22 23 24 24 25 26 27 28 28 28 29 30 30 30 30 30 29 30 31 31 30 28 30 31 29 29 29 31 34 33
16 17 17 18 20 21 22 22 21 21 22 23 24 24 25 26 27 27 27 28 29 29 29 29 31 31 31 30 30 30 30 30 30 28 27 29 30 26 26 27 32 34 32
17 18 20 21 21 21 23 23 23 23 23 24 25 26 27 28 28 29 29 30 30 31 32 32 31 31 32 32 30 30 30 29 28 24 25 28 28 27 28 28 30 32 33
Wind_Direction
238 246 255 266 276 280 283 286 290 291 291 291 292 292 290 289 290 290 292 301 336 3 5 3 0 357 351 347 345 341 338 331 321 317 322 325 325 323 321 318 315 301 293
242 248 250 256 261 266 273 280 285 288 289 290 289 286 283 284 285 304 7 16 14 11 10 1 356 351 347 345 345 344 342 340 332 326 327 328 329 329 325 321 318 312 306
241 243 245 248 254 260 270 278 282 285 286 285 283 277 276 262 266 344 7 15 10 5 359 353 349 343 341 340 338 337 336 334 333 329 325 327 327 330 326 323 321 317 313
240 240 243 246 251 257 266 274 278 279 275 269 259 254 253 257 286 332 344 352 358 356 351 347 342 340 337 335 334 333 333 331 330 327 325 325 327 328 328 326 317 319 317
240 239 241 244 249 255 261 264 264 263 259 253 247 252 266 277 298 318 327 335 342 345 342 341 338 336 332 330 330 332 333 331 330 329 327 327 329 329 331 328 321 318 313
243 242 243 245 248 252 254 254 251 247 243 243 249 262 282 296 312 326 333 334 336 336 336 336 334 331 328 326 326 328 330 332 330 329 328 327 328 330 326 326 324 322 321
244 243 243 242 242 242 240 239 237 236 237 241 252 267 287 302 315 318 329 329 332 335 335 332 330 327 324 321 321 322 322 322 320 322 321 323 323 326 325 323 321 316 310
239 238 237 235 234 232 231 230 230 233 237 244 256 270 287 302 314 315 323 326 328 334 335 332 329 327 325 321 321 321 320 319 317 314 313 316 317 318 317 315 314 312 307
235 234 233 231 230 228 225 224 224 231 239 247 260 279 294 309 316 315 317 322 322 328 331 330 328 325 324 325 325 323 322 322 319 316 316 316 316 315 315 313 315 315 310
232 230 229 225 222 220 220 220 224 229 234 245 262 280 293 304 310 313 319 326 326 330 331 328 329 324 325 328 327 325 324 324 323 321 318 316 315 315 315 316 315 315 313
231 227 223 220 219 217 216 217 220 227 241 253 270 287 301 309 311 311 315 322 324 326 327 330 330 332 329 329 327 326 322 320 321 320 319 319 319 318 316 314 314 312 307
227 221 217 214 213 214 217 224 233 242 254 268 279 290 299 302 304 305 310 314 319 323 322 329 326 326 329 329 328 324 321 319 318 320 322 324 326 326 324 323 321 314 306
223 218 208 203 208 214 220 226 234 246 263 274 284 291 295 298 303 306 312 313 322 318 321 320 325 325 327 327 328 326 326 327 327 327 328 328 328 327 325 325 323 322 314
212 213 214 200 206 219 225 229 241 259 271 281 289 294 296 299 304 309 311 315 322 323 316 321 325 325 326 325 325 328 331 332 331 330 328 328 328 329 329 333 329 328 324
201 208 216 217 213 220 230 243 258 268 274 281 287 292 295 300 305 310 312 317 329 318 305 320 322 323 323 325 327 330 334 334 332 331 329 329 329 329 331 335 335 331 331
196 209 221 226 224 231 243 250 261 268 273 278 284 290 294 301 304 305 306 318 305 308 318 319 321 322 324 327 329 330 332 334 331 330 329 329 330 331 332 335 337 335 333
203 210 220 236 245 241 249 256 266 272 270 276 281 284 290 293 296 298 303 303 307 310 313 316 317 319 323 326 326 327 329 331 330 329 327 328 329 329 331 335 337 336 334
208 218 233 239 247 253 260 267 269 268 269 271 277 282 284 287 294 298 301 295 306 304 308 313 317 320 321 322 324 324 324 326 326 325 325 325 327 329 330 334 337 336 335
229 228 234 243 253 264 273 276 277 279 278 277 280 285 288 291 294 297 298 302 306 311 312 313 315 317 318 320 320 319 320 321 322 322 321 321 325 327 329 331 333 335 335
228 236 244 257 268 274 276 276 276 278 284 292 295 290 284 288 290 289 292 301 307 309 310 310 311 313 315 317 318 317 317 319 319 319 317 318 322 323 327 328 332 334 335
241 252 260 266 268 269 270 274 281 288 292 292 291 290 293 296 303 304 306 305 305 305 307 308 311 313 314 315 315 314 315 316 316 315 313 315 318 319 323 325 328 332 335
251 257 262 266 270 276 279 281 281 284 288 289 291 291 293 297 300 302 303 304 304 305 307 307 309 311 312 314 314 313 312 313 314 311 308 311 314 315 318 321 327 331 336
258 267 275 278 278 277 277 280 284 287 289 291 294 296 295 296 299 301 303 305 305 306 306 306 307 309 310 310 311 310 310 311 310 307 305 306 310 311 314 317 325 330 334
267 272 274 277 281 283 284 286 287 286 287 291 293 296 298 299 300 302 304 305 305 306 308 308 307 308 308 308 308 309 307 306 304 303 299 303 307 307 307 313 324 329 328
270 274 280 287 286 286 286 288 288 289 290 291 294 295 297 300 302 303 305 305 305 306 306 305 306 306 306 306 307 308 305 303 300 297 295 295 297 301 307 312 319 321 322
283 286 288 287 287 288 289 288 288 289 290 291 293 295 299 301 302 304 306 307 307 306 305 306 305 305 306 306 307 305 303 302 298 291 290 296 298 303 308 305 311 316 317
Height
1514 1513 1513 1514 1514 1514 1514 1514 1513 1512 1511 1510 1508 1507 1505 1504 1503 1502 1501 1501 1500 1499 1498 1497 1496 1495 1494 1493 1491 1489 1488 1485 1479 1473 1471 1467 1465 1461 1458 1455 1450 1448 1445
1509 1509 1509 1509 1509 1509 1509 1508 1508 1508 1507 1505 1503 1502 1501 1501 1500 1500 1499 1498 1497 1496 1495 1494 1492 1491 1489 1486 1484 1483 1482 1480 1475 1467 1463 1459 1455 1452 1448 1444 1441 1438 1437
1504 1504 1504 1504 1504 1504 1503 1503 1503 1502 1501 1500 1499 1498 1498 1498 1498 1497 1496 1495 1495 1493 1492 1490 1488 1486 1484 1481 1479 1478 1476 1474 1470 1464 1457 1454 1449 1445 1437 1435 1429 1425 1424
1498 1499 1499 1499 1499 1498 1498 1498 1498 1498 1498 1496 1495 1494 1495 1495 1495 1495 1494 1493 1492 1491 1489 1487 1485 1483 1481 1477 1475 1473 1471 1468 1464 1459 1453 1448 1444 1440 1434 1427 1417 1417 1409
1492 1492 1493 1493 1493 1493 1493 1493 1494 1494 1494 1494 1493 1492 1492 1492 1492 1492 1491 1490 1489 1487 1486 1485 1482 1480 1478 1475 1471 1468 1466 1463 1458 1452 1448 1444 1439 1433 1429 1423 1416 1407 1403
1485 1486 1487 1488 1488 1488 1488 1489 1489 1490 1490 1490 1490 1489 1488 1488 1488 1488 1488 1487 1485 1483 1481 1480 1478 1475 1473 1470 1467 1465 1462 1457 1454 1448 1444 1439 1436 1433 1426 1420 1412 1405 1392
1478 1480 1481 1482 1482 1483 1484 1484 1484 1485 1486 1486 1486 1486 1485 1485 1485 1482 1482 1482 1481 1480 1477 1475 1474 1471 1468 1464 1461 1460 1459 1456 1450 1444 1439 1437 1431 1428 1422 1413 1409 1404 1396
1470 1472 1474 1475 1476 1477 1479 1479 1480 1481 1482 1481 1482 1482 1482 1480 1480 1478 1477 1476 1475 1475 1473 1471 1468 1466 1463 1457 1454 1453 1450 1450 1445 1442 1436 1433 1429 1424 1420 1412 1404 1395 1387
1462 1465 1468 1470 1471 1472 1473 1474 1475 1477 1478 1477 1476 1477 1478 1478 1474 1474 1471 1471 1470 1469 1468 1467 1462 1460 1456 1453 1447 1445 1442 1440 1437 1433 1429 1426 1423 1418 1413 1405 1398 1389 1374
1455 1458 1462 1463 1464 1466 1468 1469 1471 1471 1472 1473 1472 1471 1471 1473 1469 1469 1466 1465 1464 1463 1460 1461 1458 1455 1450 1447 1442 1438 1432 1429 1424 1420 1418 1417 1414 1410 1406 1401 1393 1384 1378
1450 1453 1455 1457 1459 1462 1463 1465 1464 1466 1469 1469 1467 1467 1464 1466 1465 1464 1462 1460 1460 1457 1454 1452 1449 1446 1444 1441 1436 1432 1426 1422 1417 1412 1408 1405 1402 1398 1394 1391 1387 1382 1374
1446 1446 1449 1452 1455 1457 1458 1459 1461 1462 1463 1464 1462 1463 1461 1461 1460 1460 1457 1456 1455 1451 1449 1446 1442 1439 1436 1434 1429 1425 1420 1416 1411 1406 1402 1397 1391 1387 1383 1379 1375 1371 1367
1446 1449 1445 1445 1450 1453 1454 1454 1456 1457 1458 1459 1457 1456 1457 1457 1455 1454 1452 1451 1449 1447 1444 1441 1436 1433 1430 1426 1422 1418 1414 1409 1404 1399 1394 1389 1384 1379 1374 1369 1364 1358 1351
1439 1446 1451 1444 1444 1449 1451 1450 1451 1451 1453 1454 1452 1450 1452 1452 1450 1448 1446 1445 1443 1440 1436 1433 1430 1426 1424 1421 1416 1413 1409 1404 1398 1393 1388 1383 1377 1370 1365 1360 1352 1345 1337
1435 1443 1449 1448 1443 1445 1447 1448 1446 1446 1448 1448 1446 1445 1445 1446 1445 1442 1441 1439 1438 1436 1429 1427 1424 1421 1418 1415 1411 1406 1402 1397 1392 1387 1382 1376 1370 1363 1356 1352 1347 1337 1330
1433 1440 1445 1446 1444 1442 1442 1443 1443 1443 1442 1442 1441 1440 1439 1438 1438 1436 1435 1434 1433 1426 1423 1421 1418 1414 1410 1406 1402 1398 1395 1391 1387 1381 1376 1371 1363 1356 1349 1346 1341 1333 1324
1428 1431 1438 1441 1441 1440 1439 1439 1440 1439 1438 1437 1435 1434 1433 1433 1432 1430 1429 1429 1424 1421 1419 1416 1412 1408 1404 1400 1396 1392 1387 1385 1380 1375 1370 1365 1358 1352 1346 1340 1334 1328 1319
1428 1428 1431 1436 1437 1436 1436 1435 1435 1436 1434 1433 1431 1429 1427 1426 1425 1424 1422 1418 1418 1416 1412 1409 1406 1401 1399 1393 1390 1385 1381 1377 1373 1368 1364 1359 1354 1347 1341 1335 1330 1323 1315
1425 1425 1427 1430 1430 1430 1430 1429 1430 1429 1429 1428 1426 1423 1420 1420 1419 1418 1416 1413 1411 1408 1406 1403 1399 1396 1391 1387 1383 1379 1375 1371 1367 1362 1357 1352 1348 1342 1336 1331 1325 1319 1312
1421 1422 1423 1424 1424 1425 1425 1424 1424 1423 1422 1420 1418 1417 1416 1414 1414 1413 1411 1407 1404 1401 1398 1395 1392 1389 1385 1380 1376 1372 1367 1364 1360 1355 1350 1346 1341 1336 1331 1325 1320 1313 1306
1417 1418 1418 1419 1419 1419 1419 1418 1417 1415 1414 1413 1412 1411 1408 1406 1405 1404 1402 1400 1398 1395 1391 1387 1384 1381 1377 1372 1368 1364 1360 1356 1352 1347 1343 1339 1334 1329 1326 1321 1315 1309 1302
1412 1413 1413 1414 1413 1413 1412 1411 1410 1408 1407 1406 1405 1404 1401 1399 1398 1396 1394 1392 1390 1387 1383 1379 1375 1372 1368 1364 1360 1355 1351 1348 1344 1340 1335 1332 1327 1323 1319 1314 1309 1304 1296
1407 1407 1407 1407 1407 1406 1405 1404 1402 1400 1399 1398 1396 1395 1394 1393 1391 1389 1386 1384 1381 1378 1375 1371 1367 1363 1360 1357 1352 1348 1343 1339 1336 1332 1327 1323 1320 1316 1312 1307 1303 1297 1291
1400 1400 1400 1400 1400 1398 1397 1397 1395 1393 1391 1389 1389 1387 1386 1384 1382 1380 1378 1375 1371 1368 1365 1361 1358 1354 1351 1347 1344 1340 1336 1331 1327 1323 1320 1315 1311 1309 1305 1301 1297 1291 1287
1394 1394 1393 1392 1392 1391 1390 1388 1387 1385 1383 1382 1380 1379 1377 1375 1373 1371 1368 1365 1362 1358 1355 1352 1349 1345 1341 1338 1334 1331 1327 1322 1318 1315 1311 1308 1304 1302 1298 1294 1290 1286 1282
1386 1386 1386 1385 1384 1383 1381 1380 1378 1377 1376 1374 1373 1371 1369 1366 1364 1361 1358 1354 1351 1347 1344 1342 1339 1335 1331 1327 1324 1320 1317 1313 1309 1307 1303 1299 1296 1293 1291 1288 1285 1281 1276